N6CTG Weather Reports


Display with metric or nautical units.
time (UTC)temp
F
wind
direction
speed
MPH
gust
MPH
rain 1hr
in
rain 24hr
in
rain mn
in
humidity
%
barometer
mb
20260506030902 54 0 0.0 0.0 0.00 0.00 0.00 78 1014.0
20260506030002 54 0 0.0 0.0 0.00 0.00 0.00 78 1013.9
20260506025402 54 243 0.0 1.0 0.00 0.00 0.00 77 1013.9
20260506024502 55 245 1.0 4.0 0.00 0.00 0.00 76 1013.7
20260506023602 55 243 2.0 5.0 0.00 0.00 0.00 75 1013.6
20260506022723 56 242 2.0 5.0 0.00 0.00 0.00 73 1013.5
20260506021802 56 240 4.0 7.0 0.00 0.00 0.00 72 1013.3
20260506020903 57 241 4.0 8.0 0.00 0.00 0.00 69 1013.2
20260506020002 58 238 4.0 8.0 0.00 0.00 0.00 68 1013.1
20260506015402 58 243 4.0 9.0 0.00 0.00 0.00 67 1013.1
20260506014502 59 244 3.0 7.0 0.00 0.00 0.00 67 1012.9
20260506013602 59 238 6.0 12.0 0.00 0.00 0.00 66 1012.9
20260506012702 59 242 6.0 10.0 0.00 0.00 0.00 66 1012.7
20260506011803 60 239 6.0 11.0 0.00 0.00 0.00 64 1012.8
20260506010902 60 238 5.0 11.0 0.00 0.00 0.00 65 1012.8
20260506010002 60 240 7.0 12.0 0.00 0.00 0.00 64 1012.8
20260506005402 60 241 6.0 12.0 0.00 0.00 0.00 64 1012.7
20260506004502 61 237 7.0 12.0 0.00 0.00 0.00 62 1012.6
20260506003602 61 244 5.0 11.0 0.00 0.00 0.00 61 1012.5
20260506002702 62 241 6.0 12.0 0.00 0.00 0.00 57 1012.5
20260506001802 62 238 5.0 12.0 0.00 0.00 0.00 56 1012.4
20260506000902 62 241 5.0 12.0 0.00 0.00 0.00 58 1012.4
20260506000002 62 241 5.0 13.0 0.00 0.00 0.00 54 1012.4
20260505235402 62 242 6.0 13.0 0.00 0.00 0.00 55 1012.4
20260505234503 62 241 6.0 11.0 0.00 0.00 0.00 57 1012.4
20260505233602 63 240 7.0 13.0 0.00 0.00 0.00 55 1012.5
20260505232723 62 242 6.0 12.0 0.00 0.00 0.00 53 1012.3
20260505231802 62 238 6.0 12.0 0.00 0.00 0.00 54 1012.4
20260505230902 62 244 7.0 12.0 0.00 0.00 0.00 53 1012.4
20260505230002 62 240 6.0 13.0 0.00 0.00 0.00 55 1012.4
20260505225403 62 244 6.0 12.0 0.00 0.00 0.00 57 1012.5
20260505224502 62 240 8.0 13.0 0.00 0.00 0.00 53 1012.6
20260505223602 63 235 7.0 13.0 0.00 0.00 0.00 52 1012.6
20260505222723 63 238 6.0 10.0 0.00 0.00 0.00 53 1012.5
20260505221802 63 232 7.0 12.0 0.00 0.00 0.00 55 1012.6
20260505220902 62 241 7.0 13.0 0.00 0.00 0.00 52 1012.6
20260505220002 62 238 7.0 14.0 0.00 0.00 0.00 54 1012.8
20260505215402 62 246 5.0 11.0 0.00 0.00 0.00 57 1012.7
20260505214503 62 234 8.0 14.0 0.00 0.00 0.00 56 1012.8
20260505213602 62 234 8.0 13.0 0.00 0.00 0.00 56 1012.8
20260505212702 63 235 6.0 12.0 0.00 0.00 0.00 59 1012.8
20260505211802 62 234 7.0 15.0 0.00 0.00 0.00 57 1012.9
20260505210902 62 232 8.0 16.0 0.00 0.00 0.00 58 1013.0
20260505210024 62 239 7.0 13.0 0.00 0.00 0.00 56 1013.1
20260505205402 62 240 6.0 12.0 0.00 0.00 0.00 56 1013.1
20260505204502 62 246 4.0 10.0 0.00 0.00 0.00 57 1013.0
20260505203602 62 241 7.0 13.0 0.00 0.00 0.00 60 1013.2
20260505202702 62 236 7.0 14.0 0.00 0.00 0.00 56 1013.1
20260505201823 62 232 6.0 13.0 0.00 0.00 0.00 59 1013.2
20260505200902 61 232 7.0 12.0 0.00 0.00 0.00 60 1013.2
20260505200002 61 242 5.0 11.0 0.00 0.00 0.00 60 1013.3
20260505195403 60 234 6.0 11.0 0.00 0.00 0.00 60 1013.3
20260505194523 60 232 5.0 11.0 0.00 0.00 0.00 65 1013.4
20260505193602 60 239 4.0 9.0 0.00 0.00 0.00 63 1013.5
20260505192702 59 232 5.0 8.0 0.00 0.00 0.00 62 1013.5
20260505191802 58 239 6.0 10.0 0.00 0.00 0.00 68 1013.7
20260505190902 57 241 5.0 9.0 0.00 0.00 0.00 74 1013.7
20260505190002 57 230 5.0 9.0 0.00 0.00 0.00 76 1013.7
20260505185424 57 233 5.0 10.0 0.00 0.00 0.00 74 1013.6
20260505184502 57 240 4.0 11.0 0.00 0.00 0.00 76 1013.6
20260505183602 56 234 5.0 9.0 0.00 0.00 0.00 77 1013.6
20260505182703 56 244 5.0 9.0 0.00 0.00 0.00 81 1013.7
20260505181802 55 243 4.0 10.0 0.00 0.00 0.00 84 1013.6
20260505180902 55 246 2.0 7.0 0.00 0.00 0.00 85 1013.6
20260505180002 55 253 1.0 5.0 0.00 0.00 0.00 86 1013.6
20260505175423 54 248 3.0 7.0 0.00 0.00 0.00 86 1013.6
20260505174502 54 235 3.0 11.0 0.00 0.00 0.00 85 1013.4
20260505173605 55 257 0.0 3.0 0.00 0.00 0.00 84 1013.2
20260505172702 55 236 2.0 6.0 0.00 0.00 0.00 84 1013.2
20260505171802 55 250 1.0 5.0 0.00 0.00 0.00 86 1013.0
20260505170902 54 245 2.0 6.0 0.00 0.00 0.00 86 1013.0
20260505170023 54 255 1.0 5.0 0.00 0.00 0.00 87 1013.0
20260505165403 53 256 3.0 8.0 0.00 0.00 0.00 86 1013.0
20260505164502 54 247 3.0 8.0 0.00 0.00 0.00 87 1012.9
20260505163623 53 240 3.0 7.0 0.00 0.00 0.00 88 1012.9
20260505162702 54 241 5.0 9.0 0.00 0.00 0.00 88 1012.8
20260505161823 54 243 3.0 9.0 0.00 0.00 0.00 89 1012.6
20260505160902 54 250 1.0 5.0 0.00 0.00 0.00 90 1012.5
20260505152703 52 243 1.0 3.0 0.00 0.00 0.00 93 1012.4
20260505151802 52 243 1.0 3.0 0.00 0.00 0.00 94 1012.4
20260505150902 52 252 0.0 5.0 0.00 0.00 0.00 94 1012.5
20260505124502 52 249 2.0 3.0 0.00 0.00 0.00 93 1012.2
20260505123623 52 249 2.0 3.0 0.00 0.00 0.00 93 1012.3
20260505122702 52 249 2.0 3.0 0.00 0.00 0.00 93 1012.3
20260505121802 52 249 2.0 3.0 0.00 0.00 0.00 93 1012.1
20260505120923 52 249 2.0 3.0 0.00 0.00 0.00 93 1012.1
20260505120002 52 249 2.0 3.0 0.00 0.00 0.00 93 1012.0
20260505115402 52 249 2.0 5.0 0.00 0.00 0.00 93 1012.0
20260505114524 52 241 2.0 5.0 0.00 0.00 0.00 93 1012.1
20260505113602 52 236 2.0 7.0 0.00 0.00 0.00 94 1012.1
20260505112702 52 223 0.0 2.0 0.00 0.00 0.00 94 1012.1
20260505111823 52 237 1.0 3.0 0.00 0.00 0.00 94 1012.1
20260505110902 52 232 1.0 3.0 0.00 0.00 0.00 94 1012.2
20260505101802 52 231 2.0 6.0 0.00 0.00 0.00 93 1012.2
20260505100902 52 226 2.0 5.0 0.00 0.00 0.00 93 1012.3
20260505100002 52 228 2.0 7.0 0.00 0.00 0.00 92 1012.3
20260505095402 52 234 3.0 8.0 0.00 0.00 0.00 92 1012.4
20260505094523 52 226 1.0 7.0 0.00 0.00 0.00 92 1012.4
20260505093623 52 147 0.0 1.0 0.00 0.00 0.00 92 1012.4
20260505092703 52 214 0.0 2.0 0.00 0.00 0.00 92 1012.5
20260505091802 52 205 0.0 2.0 0.00 0.00 0.00 92 1012.6
20260505090924 52 162 0.0 2.0 0.00 0.00 0.00 91 1012.6
20260505090023 53 0 0.0 0.0 0.00 0.00 0.00 91 1012.7
20260505085403 53 0 0.0 0.0 0.00 0.00 0.00 91 1012.7
20260505084503 52 0 0.0 0.0 0.00 0.00 0.00 91 1012.8
20260505083623 52 0 0.0 0.0 0.00 0.00 0.00 91 1012.8
20260505082723 52 0 0.0 0.0 0.00 0.00 0.00 91 1013.0
20260505081802 52 0 0.0 0.0 0.00 0.00 0.00 91 1013.3
20260505080903 52 0 0.0 0.0 0.00 0.00 0.00 91 1013.3
20260505080002 52 0 0.0 0.0 0.00 0.00 0.00 91 1013.4
20260505075402 52 0 0.0 0.0 0.00 0.00 0.00 90 1013.5
20260505074502 52 0 0.0 0.0 0.00 0.00 0.00 90 1013.5
20260505073602 52 237 1.0 4.0 0.00 0.00 0.00 90 1013.6
20260505072702 52 237 0.0 3.0 0.00 0.00 0.00 89 1013.5
20260505071802 52 181 0.0 4.0 0.00 0.00 0.00 88 1013.6
20260505070903 53 211 0.0 3.0 0.00 0.00 0.00 89 1013.6
20260505070025 54 0 0.0 0.0 0.00 0.00 0.00 90 1013.7
20260505065402 54 0 0.0 0.0 0.00 0.00 0.00 89 1013.8
20260505064502 53 0 0.0 0.0 0.00 0.00 0.00 89 1013.8
20260505063623 54 0 0.0 0.0 0.00 0.00 0.00 88 1013.8
20260505062702 54 0 0.0 0.0 0.00 0.00 0.00 87 1013.9
20260505061803 54 231 0.0 4.0 0.00 0.00 0.00 85 1013.9
20260505060924 55 260 0.0 4.0 0.00 0.00 0.00 81 1014.0
20260505060002 55 239 1.0 4.0 0.00 0.00 0.00 82 1014.0
20260505055423 55 237 0.0 3.0 0.00 0.00 0.00 82 1014.0
20260505054523 55 236 1.0 5.0 0.00 0.00 0.00 82 1014.0
20260505053602 55 225 1.0 4.0 0.00 0.00 0.00 82 1014.2
20260505052702 55 225 1.0 2.0 0.00 0.00 0.00 82 1014.2
20260505051802 55 225 0.0 3.0 0.00 0.00 0.00 81 1014.3
20260505050902 55 232 1.0 5.0 0.00 0.00 0.00 82 1014.4
20260505040902 55 234 3.0 6.0 0.00 0.00 0.00 83 1014.2
20260505040002 55 241 2.0 5.0 0.00 0.00 0.00 84 1014.2
20260505035402 55 243 1.0 5.0 0.00 0.00 0.00 84 1014.2
20260505034523 55 243 1.0 5.0 0.00 0.00 0.00 83 1014.1
20260505033602 55 243 2.0 5.0 0.00 0.00 0.00 83 1014.1
20260505032702 55 242 2.0 6.0 0.00 0.00 0.00 83 1013.9
20260505031802 55 243 3.0 6.0 0.00 0.00 0.00 82 1013.9